Showing default

NOAA 19, 33591

Orbit data source: Space-Track

NOAA 19, 33591 is a payload satellite owned by NOAA (US) in SSO that was launched on Fri, 06 Feb 2009 UTC via a DELTA 7320-10C launch vehicle from the Air Force Western Test Range (AFWTR). Payload-class satellites include a variety of spacecraft equipped with specific instruments for various scientific and technological missions. These include communications satellites like Starlink; space stations such as the ISS; scientific satellites like the Hubble; Earth observation satellites from companies like Planet Labs, Umbra, and HawkEye 360; GPS; miniature CubeSats for education and research; and military/defense satellites.

Loading next visibility...
Identifier
33591, 2009-005A
Orbit
SSO
Country
Flag of USUS
Related business
Manufacturer
LMSS
Mission
Non-operational Civil Weather
Bus & Motor
ATN, Unknown motor
Mass
1,420 kg wet, 1,416 kg dry
Launch date (UTC)
2009-02-06 (17 years ago)
Launch vehicle
DELTA 7320-10C
Launch site
Air Force Western Test Range (AFWTR)
Object type
Payload
Rocket body
Debris
Shape & HBR
Box + 1 Pan, 6.0 m
Radar Cross Section
11.218 m², Large (>1 m²)

Expand to show TLE details & history
Last TLE update: 18 hours ago

TLE from 18 hours ago
0 NOAA 19
1 33591U 09005A   26094.21892216  .00000093  00000-0  73620-4 0  9991
2 33591  98.9561 165.0270 0012923 236.8745 123.1187 14.13462167884035
Epoch: 2026-04-04T05:15Z
TLE epoch observation values (Epoch: 2026-04-04T05:15:14.874Z)
Latitude
-0.00007°
Longitude
-106.32681°
Altitude
855.557 km
Speed
7.422 km/s
True Right ascension
11h 00m 06s
True Declination
0° 00' 00"
Sunlit
Object was in full shadow at epoch
Visualization orbit readout
Latitude
Unknown
Longitude
Unknown
Altitude
Unknown
Speed
Unknown
Apparent Right ascension
Unknown
Apparent Declination
Unknown
Sunlit
N/A
Visualization observer readout
Local Sidereal Time
04:44:04
Azimuth
Unknown
Elevation
Unknown
Doppler factor
Unknown
Orbital elements
Apogee altitude
854.062 km
Perigee altitude
835.394 km
Semi-major axis
7,222.865 km
Eccentricity
0.00129
Inclination
98.9561°
RAAN
165.027°
Arg. of periapsis
236.8745°
True anomaly
123.24262°
Mean anomaly
123.1187°
Eccentric anomaly
123.18067°
Mean motion
3.53573 °/min
Orbital period
101.82 mins
BSTAR
0.00007362
Loading maneuver chart data...
Computing Atmospheric mass density...
Loading historical data...
Loading historical data...
Loading historical data...
Loading historical data...
Loading historical data...
Loading historical data...
Loading historical data...
Other satellites on launch #5 in the year 2009 (2009-02-06 UTC)

Documentation

Showing up to 5 results
|